Date String (YYYY-MM-DD hh:mm:ss) UTC,Instrument flags,absolute air pressure of the measurement (hPa),sample flow rate (lpm),inlet stack bypass flow (lpm),air temperature of the measurement (°C),ambient temperature measured by the external sensor (°C),aerosol sample conditioner tube jacket temperature (°C),OPC LED temperature (°C),internal box temperature (°C),relative humidity of the measurement (%),span deviation,mass concentration of particles derived from Lorenz-Mie calculation of OPC scattering (μg/m³),mass concentration of particles derived from Lorenz-Mie calculation of OPC scattering (μg/m³),mass concentration of particles derived from Lorenz-Mie calculation of OPC scattering (μg/m³)
DateTimeUTC,F1_M11,P_M11,Q1_M11,Q2_M11,T1_M11,T2_M11,T3_M11,T4_M11,T5_M11,U1_M11,ZSPAN_M11,X0_M11,X2_M11,X1_M11
2023-06-19 21:00:00,SystemResetWarning,0824.5,5.00,000.00,029.0,025.2,000.0,037.4,030.3,19.5,0000.0,0015.05,0005.07,0003.72
2023-06-19 21:01:00,SystemResetWarning,0824.4,5.00,000.00,029.0,025.7,000.0,037.4,030.4,21.4,0000.0,0014.98,0005.05,0003.71
2023-06-19 21:02:00,SystemResetWarning,0824.4,5.01,000.00,029.0,026.2,000.0,037.5,030.5,20.0,0000.0,0014.98,0005.04,0003.69
2023-06-19 21:03:00,SystemResetWarning,0824.4,5.00,000.00,029.0,026.6,000.0,037.5,030.6,21.0,0000.0,0013.80,0005.03,0003.68
2023-06-19 21:04:00,SystemResetWarning,0824.5,5.00,000.00,029.0,027.0,000.0,037.5,030.7,21.2,0000.0,0013.58,0004.99,0003.67
2023-06-19 21:05:00,SystemResetWarning,0824.5,5.00,000.00,029.1,027.3,000.0,037.5,030.7,21.2,0000.0,0013.62,0004.96,0003.65
2023-06-19 21:06:00,SystemResetWarning,0824.5,5.00,000.00,029.1,027.5,000.0,037.5,030.8,20.5,0000.0,0013.99,0004.96,0003.65
2023-06-19 21:07:00,SystemResetWarning,0824.5,4.98,000.00,029.1,026.4,000.0,037.5,030.8,20.2,0000.0,0014.35,0004.99,0003.65
2023-06-19 21:08:00,SystemResetWarning,0824.4,5.01,000.00,029.1,024.6,000.0,037.5,030.6,21.4,0000.0,0014.87,0004.98,0003.65
2023-06-19 21:09:00,SystemResetWarning,0824.4,5.01,000.00,029.0,024.5,000.0,037.4,030.6,22.2,0000.0,0015.57,0004.93,0003.65
2023-06-19 21:10:00,SystemResetWarning,0824.4,4.98,000.00,029.0,024.9,000.0,037.4,030.4,21.7,0000.0,0017.56,0004.88,0003.65
2023-06-19 21:11:00,SystemResetWarning,0824.4,4.99,000.00,028.9,025.4,000.0,037.4,030.4,19.4,0000.0,0016.93,0004.85,0003.65
2023-06-19 21:12:00,SystemResetWarning,0824.4,5.00,000.00,028.9,025.9,000.0,037.4,030.4,18.7,0000.0,0017.48,0004.89,0003.66
2023-06-19 21:13:00,SystemResetWarning,0824.3,5.01,000.00,028.9,026.3,000.0,037.4,030.5,18.3,0000.0,0018.65,0004.90,0003.65
2023-06-19 21:14:00,SystemResetWarning,0824.4,5.01,000.00,029.0,026.7,000.0,037.5,030.6,19.4,0000.0,0018.94,0004.88,0003.65
2023-06-19 21:15:00,SystemResetWarning,0824.4,5.00,000.00,029.0,027.1,000.0,037.5,030.7,19.4,0000.0,0019.65,0004.88,0003.64
2023-06-19 21:16:00,SystemResetWarning,0824.4,4.99,000.00,029.1,027.4,000.0,037.5,030.8,18.7,0000.0,0020.03,0004.85,0003.63
2023-06-19 21:17:00,SystemResetWarning,0824.4,5.00,000.00,029.1,027.4,000.0,037.5,030.8,17.5,0000.0,0019.83,0004.82,0003.63
2023-06-19 21:18:00,SystemResetWarning,0824.3,4.99,000.00,029.1,025.5,000.0,037.5,030.8,20.1,0000.0,0020.00,0004.78,0003.63
2023-06-19 21:19:00,SystemResetWarning,0824.4,5.00,000.00,029.1,024.2,000.0,037.4,030.7,20.3,0000.0,0019.56,0004.75,0003.63
2023-06-19 21:20:00,SystemResetWarning,0824.3,5.01,000.00,029.0,024.5,000.0,037.4,030.6,19.9,0000.0,0018.93,0004.75,0003.63
2023-06-19 21:21:00,SystemResetWarning,0824.3,5.00,000.00,028.9,025.0,000.0,037.4,030.3,20.5,0000.0,0016.70,0004.76,0003.63
2023-06-19 21:22:00,SystemResetWarning,0824.4,5.00,000.00,028.9,025.5,000.0,037.4,030.3,21.5,0000.0,0016.06,0004.73,0003.63
2023-06-19 21:23:00,SystemResetWarning,0824.4,5.00,000.00,028.9,026.0,000.0,037.4,030.5,22.4,0000.0,0015.58,0004.68,0003.61
2023-06-19 21:24:00,SystemResetWarning,0824.3,4.99,000.00,028.9,026.4,000.0,037.4,030.6,21.4,0000.0,0013.94,0004.66,0003.61
2023-06-19 21:25:00,SystemResetWarning,0824.3,4.99,000.00,029.0,026.8,000.0,037.4,030.6,20.1,0000.0,0013.87,0004.65,0003.61
2023-06-19 21:26:00,SystemResetWarning,0824.3,5.02,000.00,029.0,027.2,000.0,037.5,030.7,21.6,0000.0,0014.04,0004.69,0003.63
2023-06-19 21:27:00,SystemResetWarning,0824.3,4.99,000.00,029.1,027.4,000.0,037.5,030.8,19.8,0000.0,0013.60,0004.68,0003.63
2023-06-19 21:28:00,SystemResetWarning,0824.3,4.99,000.00,029.1,026.9,000.0,037.5,030.8,18.2,0000.0,0013.12,0004.70,0003.64
2023-06-19 21:29:00,SystemResetWarning,0824.3,5.00,000.00,029.1,024.9,000.0,037.4,030.7,17.6,0000.0,0012.29,0004.70,0003.64
2023-06-19 21:30:00,SystemResetWarning,0824.3,5.01,000.00,029.0,024.2,000.0,037.4,030.6,19.5,0000.0,0012.29,0004.68,0003.63
2023-06-19 21:31:00,SystemResetWarning,0824.3,5.00,000.00,029.0,024.7,000.0,037.3,030.6,19.6,0000.0,0012.34,0004.69,0003.63
2023-06-19 21:32:00,SystemResetWarning,0824.2,5.00,000.00,028.9,025.2,000.0,037.4,030.4,18.6,0000.0,0012.49,0004.66,0003.60
2023-06-19 21:33:00,SystemResetWarning,0824.3,5.00,000.00,028.9,025.7,000.0,037.4,030.5,18.1,0000.0,0012.18,0004.65,0003.60
2023-06-19 21:34:00,SystemResetWarning,0824.2,5.00,000.00,028.9,026.2,000.0,037.4,030.6,18.8,0000.0,0012.57,0004.68,0003.59
2023-06-19 21:35:00,SystemResetWarning,0824.2,4.99,000.00,028.9,026.6,000.0,037.4,030.6,18.3,0000.0,0012.98,0004.70,0003.59
2023-06-19 21:36:00,SystemResetWarning,0824.2,5.02,000.00,029.0,027.0,000.0,037.4,030.7,19.5,0000.0,0012.87,0004.67,0003.58
2023-06-19 21:37:00,SystemResetWarning,0824.1,4.99,000.00,029.0,027.3,000.0,037.4,030.8,20.0,0000.0,0012.64,0004.70,0003.57
2023-06-19 21:38:00,SystemResetWarning,0824.2,4.99,000.00,029.1,027.6,000.0,037.5,030.8,19.5,0000.0,0012.42,0004.70,0003.57
2023-06-19 21:39:00,SystemResetWarning,0824.1,5.00,000.00,029.1,027.4,000.0,037.5,030.9,18.8,0000.0,0012.87,0004.69,0003.56
2023-06-19 21:40:00,SystemResetWarning,0824.1,5.00,000.00,029.1,025.5,000.0,037.4,030.6,17.1,0000.0,0013.48,0004.71,0003.55
2023-06-19 21:41:00,SystemResetWarning,0824.2,5.01,000.00,029.0,024.4,000.0,037.4,030.6,18.0,0000.0,0013.95,0004.70,0003.55
2023-06-19 21:42:00,SystemResetWarning,0824.2,5.01,000.00,029.0,024.8,000.0,037.4,030.6,20.6,0000.0,0013.51,0004.69,0003.55
2023-06-19 21:43:00,SystemResetWarning,0824.1,5.01,000.00,028.9,025.2,000.0,037.4,030.4,17.0,0000.0,0013.42,0004.73,0003.56
2023-06-19 21:44:00,SystemResetWarning,0824.1,5.00,000.00,028.9,025.7,000.0,037.4,030.5,17.1,0000.0,0013.48,0004.76,0003.56
2023-06-19 21:45:00,SystemResetWarning,0824.1,5.00,000.00,028.9,026.1,000.0,037.4,030.6,17.6,0000.0,0013.28,0004.73,0003.56
2023-06-19 21:46:00,SystemResetWarning,0824.2,4.98,000.00,029.0,026.6,000.0,037.4,030.7,18.0,0000.0,0013.99,0004.68,0003.57
2023-06-19 21:47:00,SystemResetWarning,0824.2,5.02,000.00,029.0,027.0,000.0,037.4,030.7,18.7,0000.0,0013.87,0004.66,0003.57
2023-06-19 21:48:00,SystemResetWarning,0824.2,5.00,000.00,029.0,027.3,000.0,037.4,030.8,18.7,0000.0,0013.52,0004.61,0003.56
2023-06-19 21:49:00,SystemResetWarning,0824.2,4.99,000.00,029.1,027.5,000.0,037.5,030.9,19.3,0000.0,0013.27,0004.57,0003.55
2023-06-19 21:50:00,SystemResetWarning,0824.2,5.00,000.00,029.1,026.8,000.0,037.5,030.9,18.3,0000.0,0013.35,0004.61,0003.54
2023-06-19 21:51:00,SystemResetWarning,0824.2,5.00,000.00,029.1,024.9,000.0,037.4,030.5,17.8,0000.0,0013.40,0004.61,0003.54
2023-06-19 21:52:00,SystemResetWarning,0824.2,5.00,000.00,029.0,024.5,000.0,037.4,030.5,19.2,0000.0,0012.64,0004.56,0003.54
2023-06-19 21:53:00,SystemResetWarning,0824.2,5.01,000.00,029.0,024.9,000.0,037.4,030.4,18.4,0000.0,0012.75,0004.54,0003.55
2023-06-19 21:54:00,SystemResetWarning,0824.2,4.99,000.00,028.9,025.3,000.0,037.4,030.4,18.6,0000.0,0014.05,0004.51,0003.54
2023-06-19 21:55:00,SystemResetWarning,0824.1,5.00,000.00,028.9,025.8,000.0,037.4,030.5,18.2,0000.0,0014.57,0004.48,0003.53
2023-06-19 21:56:00,SystemResetWarning,0824.1,5.01,000.00,028.9,026.3,000.0,037.4,030.6,18.5,0000.0,0014.85,0004.46,0003.53
2023-06-19 21:57:00,SystemResetWarning,0824.1,5.00,000.00,029.0,026.7,000.0,037.4,030.7,18.8,0000.0,0013.92,0004.48,0003.54
2023-06-19 21:58:00,SystemResetWarning,0824.2,4.99,000.00,029.0,027.1,000.0,037.4,030.8,20.4,0000.0,0014.08,0004.49,0003.53
2023-06-19 21:59:00,SystemResetWarning,0824.1,4.99,000.00,029.1,027.4,000.0,037.4,030.8,19.1,0000.0,0014.61,0004.47,0003.52
